TimeEDT,TemperatureF,Dew PointF,Humidity,Sea Level PressureIn,VisibilityMPH,Wind Direction,Wind SpeedMPH,Gust SpeedMPH,PrecipitationIn,Events,Conditions,WindDirDegrees,DateUTC
12:54 AM,57.0,50.0,77,29.90,10.0,East,5.8,-,N/A,,Overcast,90,2012-10-02 04:54:00
1:54 AM,57.0,50.0,77,29.91,10.0,Calm,Calm,-,N/A,,Overcast,0,2012-10-02 05:54:00
2:07 AM,57.2,51.8,82,29.92,10.0,East,3.5,-,N/A,,Overcast,90,2012-10-02 06:07:00
3:54 AM,57.0,52.0,83,29.89,10.0,SE,3.5,-,N/A,,Overcast,140,2012-10-02 07:54:00
4:33 AM,57.2,53.6,88,29.91,10.0,Calm,Calm,-,N/A,,Overcast,0,2012-10-02 08:33:00
4:54 AM,57.0,53.1,87,29.90,10.0,Calm,Calm,-,N/A,,Overcast,0,2012-10-02 08:54:00
5:41 AM,57.2,53.6,88,29.91,8.0,Calm,Calm,-,0.01,Rain,Light Rain,0,2012-10-02 09:41:00
5:54 AM,57.0,54.0,89,29.91,5.0,Calm,Calm,-,0.03,Rain,Rain,0,2012-10-02 09:54:00
6:17 AM,55.4,53.6,94,29.90,5.0,NE,3.5,-,0.03,Rain,Light Rain,40,2012-10-02 10:17:00
6:54 AM,55.9,55.0,97,29.91,5.0,ENE,3.5,-,0.09,Rain,Rain,60,2012-10-02 10:54:00
7:03 AM,55.4,53.6,94,29.91,2.0,North,5.8,-,0.02,Rain,Rain,350,2012-10-02 11:03:00
7:23 AM,55.4,55.4,100,29.92,3.0,North,5.8,-,0.04,Rain,Rain,360,2012-10-02 11:23:00
7:54 AM,55.9,55.0,97,29.92,6.0,NE,3.5,-,0.06,Rain,Light Rain,40,2012-10-02 11:54:00
8:54 AM,57.0,55.0,93,29.95,5.0,North,3.5,-,0.01,,Overcast,360,2012-10-02 12:54:00
8:59 AM,57.2,55.4,94,29.93,1.8,NE,3.5,-,N/A,,Overcast,40,2012-10-02 12:59:00
9:10 AM,57.2,55.4,94,29.95,3.0,NNE,3.5,-,N/A,,Overcast,20,2012-10-02 13:10:00
9:34 AM,57.2,55.4,94,29.94,2.0,Calm,Calm,-,0.01,Rain,Light Rain,0,2012-10-02 13:34:00
9:54 AM,57.9,57.0,97,29.93,2.5,NE,3.5,-,0.02,Rain,Light Rain,50,2012-10-02 13:54:00
10:02 AM,57.2,57.2,100,29.94,4.0,NNW,5.8,-,0.00,Rain,Light Rain,340,2012-10-02 14:02:00
10:54 AM,59.0,57.9,96,29.94,10.0,Calm,Calm,-,0.01,Rain,Light Rain,0,2012-10-02 14:54:00
11:54 AM,60.1,57.9,93,29.94,10.0,Variable,3.5,-,0.00,,Overcast,0,2012-10-02 15:54:00
12:54 PM,60.1,59.0,96,29.94,10.0,East,4.6,-,0.00,Rain,Light Rain,80,2012-10-02 16:54:00
1:03 PM,60.8,59.0,94,29.94,10.0,East,5.8,-,N/A,,Overcast,80,2012-10-02 17:03:00
1:54 PM,62.1,60.1,93,29.93,10.0,East,3.5,-,0.00,,Overcast,100,2012-10-02 17:54:00
2:54 PM,64.9,61.0,87,29.90,10.0,ENE,6.9,-,N/A,,Overcast,60,2012-10-02 18:54:00
3:25 PM,64.4,60.8,88,29.91,10.0,ENE,6.9,-,N/A,,Overcast,60,2012-10-02 19:25:00
3:32 PM,64.4,60.8,88,29.91,10.0,ENE,6.9,-,N/A,,Overcast,60,2012-10-02 19:32:00
3:54 PM,64.0,61.0,90,29.91,10.0,East,5.8,-,N/A,,Overcast,90,2012-10-02 19:54:00
4:36 PM,64.4,60.8,88,29.92,10.0,East,6.9,-,0.00,Rain,Light Rain,100,2012-10-02 20:36:00
4:49 PM,64.4,60.8,88,29.91,10.0,East,8.1,-,0.00,,Overcast,90,2012-10-02 20:49:00
4:54 PM,64.0,60.1,87,29.90,10.0,East,8.1,-,0.00,,Overcast,80,2012-10-02 20:54:00
5:15 PM,62.6,60.8,94,29.92,10.0,ENE,6.9,-,N/A,,Overcast,70,2012-10-02 21:15:00
5:54 PM,63.0,60.1,90,29.92,10.0,ESE,4.6,-,0.00,,Overcast,110,2012-10-02 21:54:00
6:54 PM,62.1,60.1,93,29.94,10.0,East,6.9,-,N/A,,Overcast,80,2012-10-02 22:54:00
8:01 PM,60.8,60.8,100,29.96,6.0,East,4.6,-,N/A,,Overcast,80,2012-10-03 00:01:00
8:41 PM,60.8,60.8,100,29.97,2.0,ENE,5.8,-,N/A,,Overcast,70,2012-10-03 00:41:00
8:50 PM,60.8,60.8,100,29.96,1.2,ENE,3.5,-,N/A,,Overcast,60,2012-10-03 00:50:00
8:54 PM,61.0,60.1,97,29.96,0.8,ENE,5.8,-,N/A,,Mist,70,2012-10-03 00:54:00
9:12 PM,60.8,60.8,100,29.96,0.2,ENE,4.6,-,N/A,Fog,Fog,60,2012-10-03 01:12:00
9:54 PM,60.1,59.0,96,29.97,0.2,ENE,6.9,-,N/A,Fog,Fog,70,2012-10-03 01:54:00
10:54 PM,60.1,59.0,96,29.97,0.2,ENE,4.6,-,N/A,Fog,Fog,60,2012-10-03 02:54:00
11:54 PM,59.0,59.0,100,29.97,0.2,ENE,6.9,-,N/A,Fog,Fog,60,2012-10-03 03:54:00